Delray Beach, FL (33446)

11:43 PM EDT on July 26, 2016 (GMT -0400)
J-Ball at Mizner Country Club | | Change Station

Elev 19 ft 26.43 °N, 80.18 °W | Updated 48 seconds ago

Partly Cloudy
Partly Cloudy
83.1 °F
Feels Like 92 °F
N
0.0
Wind Variable Wind from SSE
Gusts 1.0 mph

Today
High -- | Low -- °F
--% Chance of Precip.
Yesterday
High -- | Low -- °F
Precip. -- in
Pressure 30.09 in
Visibility 10.0 miles
Clouds Few 2400 ft
Few 4500 ft
Heat Index 92 °F
Dew Point 76 °F
Humidity 80%
Rainfall 0.05 in
Snow Depth Not available.
6:43 AM 8:11 PM
Waning Gibbous, 48% visible
METAR KPMP 270253Z AUTO 13008KT 10SM FEW024 FEW045 29/22 A3008 RMK AO2 LTG DSNT S SLP187 T02890222 53012 $
Pressure 30.09 in
Visibility 10.0 miles
Clouds Few 2400 ft
Few 4500 ft
Heat Index 92 °F
Dew Point 76 °F
Humidity 80%
Rainfall 0.05 in
Snow Depth Not available.
6:43 AM 8:11 PM
Waning Gibbous, 48% visible
METAR KPMP 270253Z AUTO 13008KT 10SM FEW024 FEW045 29/22 A3008 RMK AO2 LTG DSNT S SLP187 T02890222 53012 $

10-Day Weather Forecast

Almanac

Astronomy

Jul. 26, 2016 Rise Set
Actual Time
Civil Twilight
Nautical Twilight
Astronomical Twilight
Moon
Length of Visible Light
Length of Day
Tomorrow will be .
, % of the Moon is Illuminated

Today's Extremes

State Highs State Lows

Community

WunderPhotos

Upload Photos

1,927,797 photos uploaded!

WunderBlog® & News

Nearby

Air Quality

  Air Quality AQ Index Pollutant
Not available.

Snow Depth

Station Depth Elevation

Earthquake Activity

City Distance Mag. Time & Date
Minimum magnitude displayed is 2.5.

Coastal Water Temperatures

Place Temperature

Stations

Nearby Weather Stations

Station Location Temp. Windchill Dew Point Humidity Wind Precip. Elev Updated Type
                   

Watches & Warnings

There are currently no watches in effect.